Temperature
12 11 10 10 11 12 12 11 11 12 12 11 10 11 11 11 11 11 11 11 10 10 9 9 8 8 8 7 7 7 7 7 7 7 7 7 7 7 7 7 7 7 7 7
11 10 11 12 12 11 11 11 11 11 12 11 10 10 11 11 11 11 11 10 10 10 9 8 8 7 7 7 7 7 7 6 6 6 6 6 6 6 6 6 6 6 6 6
10 11 11 11 11 11 11 10 10 10 10 10 9 9 10 11 11 11 11 10 10 9 9 8 7 7 7 6 6 6 6 6 6 6 6 6 6 6 6 6 6 6 6 6
10 11 10 10 10 10 10 10 10 9 8 8 9 7 10 10 10 10 10 10 9 9 8 8 7 6 6 6 6 6 6 6 5 6 6 6 6 5 5 5 5 5 5 5
9 10 9 9 10 9 9 9 9 9 8 7 8 7 9 10 9 9 9 9 9 9 8 7 7 6 6 6 6 6 5 5 5 5 5 5 5 5 5 5 4 5 5 5
9 9 9 9 9 9 9 9 9 8 7 6 8 8 8 9 9 9 9 9 9 8 8 7 6 6 5 5 5 5 5 5 5 5 5 5 4 4 4 4 4 4 4 4
9 9 9 9 8 8 8 7 7 7 6 7 9 9 8 10 10 9 9 9 9 8 7 7 6 5 5 5 5 5 4 4 4 4 4 4 4 4 4 4 4 4 4 4
8 8 8 8 8 7 8 8 7 7 7 8 8 8 8 10 10 10 9 9 9 8 7 6 6 5 5 4 4 4 4 4 4 4 4 4 4 4 4 3 3 3 3 3
8 8 8 8 8 8 7 7 8 7 6 6 7 8 9 9 9 8 8 8 8 7 7 6 5 5 5 4 4 4 4 4 4 4 3 4 3 3 3 3 3 3 3 3
7 7 7 7 7 7 7 7 6 6 6 6 8 9 8 8 8 7 7 7 8 7 6 6 5 5 4 4 4 3 3 3 3 3 3 3 3 3 3 3 3 3 3 3
7 6 6 6 6 6 6 6 6 6 6 6 6 8 9 8 8 7 7 7 7 7 6 5 5 4 4 3 3 3 3 3 3 3 3 3 3 3 2 2 2 2 2 2
6 5 5 6 7 7 7 6 6 5 5 6 6 7 9 8 8 7 7 7 7 6 6 5 4 4 4 3 3 3 3 3 3 3 2 2 2 2 2 2 2 2 2 2
5 4 4 6 6 5 5 6 6 5 5 5 5 6 8 8 7 8 7 7 6 6 5 4 4 4 3 3 3 3 3 3 3 2 2 2 2 2 2 2 2 2 2 2
5 4 4 5 6 5 4 5 5 4 4 4 5 6 7 7 7 6 7 6 6 5 4 4 3 3 3 3 3 3 2 2 2 2 2 2 2 2 2 1 1 1 1 1
4 3 4 4 5 5 5 5 5 4 4 4 5 6 6 6 6 6 6 6 5 5 4 4 3 3 3 3 3 2 2 2 2 2 2 2 2 2 2 1 1 1 1 1
4 3 3 3 5 5 5 5 5 4 4 5 5 5 6 6 6 6 5 5 5 4 4 3 3 3 2 2 2 2 2 2 2 1 1 1 1 1 1 1 1 1 1 1
3 3 3 3 4 4 4 4 4 4 5 5 4 5 5 5 5 5 5 5 4 4 4 3 3 3 2 2 2 2 2 1 1 1 1 1 1 1 1 1 1 1 1 0
2 2 2 3 3 3 5 6 5 4 5 5 4 5 5 5 5 5 5 4 4 3 3 3 3 2 2 2 2 1 1 1 1 1 1 1 1 0 0 0 0 0 0 0
2 2 2 3 3 4 5 5 5 4 4 5 4 4 4 4 4 4 5 4 3 3 3 3 2 2 2 2 1 1 1 1 1 0 0 0 0 0 -0 -0 -0 -0 -0 -0
1 1 2 2 3 3 5 4 4 4 3 4 4 4 3 3 2 3 4 3 3 3 3 2 2 2 2 1 1 1 0 0 0 0 -0 -0 -0 -0 -0 -0 -0 -1 -1 -1
0 1 1 2 2 3 4 4 4 3 4 4 4 4 3 2 3 3 3 3 3 3 2 2 2 2 1 1 1 0 0 0 -0 -0 -0 -0 -0 -1 -1 -1 -1 -1 -1 -1
1 1 1 1 2 3 3 2 2 3 4 4 4 4 3 3 3 3 2 2 2 2 2 2 2 1 1 1 0 0 0 -0 -0 -0 -0 -0 -1 -1 -1 -1 -1 -1 -1 -1
2 2 2 2 3 4 4 4 4 4 3 3 3 3 3 3 2 2 2 2 2 2 2 1 1 1 1 1 0 -0 -0 -0 -0 -0 -1 -1 -1 -1 -1 -1 -1 -1 -2 -2
2 3 2 2 2 4 4 4 4 3 3 3 3 3 2 2 2 2 2 2 1 1 1 1 1 1 0 0 0 -0 -0 -0 -0 -1 -1 -1 -1 -1 -1 -1 -2 -2 -2 -2
3 2 1 1 2 3 4 4 3 3 3 3 3 2 2 2 2 1 1 1 1 1 1 0 0 0 0 -0 -0 -0 -0 -1 -1 -1 -1 -1 -1 -1 -1 -1 -2 -2 -2 -2
2 1 1 2 3 2 3 3 3 3 2 2 2 2 2 1 1 1 1 1 1 0 0 0 0 -0 -0 -0 -0 -0 -0 -1 -1 -1 -1 -1 -1 -1 -2 -2 -2 -2 -2 -2
Wind_Speed
5 3 4 5 5 6 6 8 9 8 3 4 8 11 10 7 7 7 6 5 4 4 3 3 3 2 2 2 2 2 2 2 1 1 1 1 1 1 1 1 1 2 2 2
3 6 5 4 5 7 7 9 9 7 2 5 8 12 10 8 8 6 5 5 4 3 3 4 4 3 3 2 1 1 1 2 1 1 1 1 1 1 1 1 1 2 2 3
5 2 2 4 5 6 8 7 7 7 7 7 7 9 9 6 6 6 5 4 4 4 3 4 4 3 2 2 2 2 2 2 2 1 1 1 1 1 1 1 1 2 2 3
4 3 3 4 5 5 7 3 5 6 6 5 3 6 6 6 6 6 5 4 3 3 3 3 3 3 3 2 2 2 2 2 2 1 1 2 2 2 2 2 1 2 2 2
3 1 3 5 4 4 4 4 6 7 7 7 6 6 6 4 5 6 5 4 3 3 3 3 3 3 2 2 2 1 1 1 1 1 2 2 2 2 1 1 1 2 1 2
4 2 2 2 3 4 4 4 6 5 3 6 7 6 5 4 4 3 4 4 4 3 2 2 3 3 2 2 1 1 1 1 1 1 1 1 2 2 1 1 2 2 2 2
5 5 3 1 2 2 3 1 1 2 4 6 3 4 6 3 2 3 4 3 3 2 3 3 2 3 2 2 2 1 1 1 1 0 1 1 2 2 2 2 2 2 2 2
4 4 6 4 3 2 4 3 2 3 4 4 3 6 4 3 3 2 2 3 3 2 3 3 3 3 3 3 3 2 2 2 1 1 1 2 2 1 2 2 2 2 2 2
3 2 3 4 2 3 3 3 2 3 5 5 5 4 3 3 2 2 1 2 2 2 3 3 3 3 3 3 3 3 2 1 1 1 1 1 2 2 2 2 2 2 2 2
3 4 2 3 2 4 3 1 1 2 3 5 6 5 4 4 4 2 2 1 1 2 3 3 3 3 3 3 3 2 2 2 1 1 1 1 2 2 2 2 2 3 3 3
2 3 2 3 6 6 5 3 4 3 4 4 5 4 1 2 3 3 2 2 2 2 3 3 2 2 3 3 3 3 2 2 2 2 1 1 2 2 2 2 3 3 3 3
2 2 4 4 2 2 4 5 5 3 5 4 4 6 1 2 1 1 0 1 2 2 2 2 2 2 2 2 3 3 3 2 2 2 1 2 2 1 2 2 2 2 2 3
1 2 3 2 2 2 3 5 5 4 3 5 6 7 1 3 2 1 1 1 1 1 2 2 2 2 2 2 2 3 3 2 2 2 2 2 2 2 2 2 2 2 2 3
2 3 6 6 3 2 5 6 6 6 6 7 10 11 8 6 4 3 2 2 2 2 2 2 2 2 2 2 2 2 3 2 2 2 2 2 2 2 2 2 2 2 2 2
2 4 6 10 11 8 10 10 9 12 11 9 11 12 12 8 6 4 3 4 4 3 3 3 2 2 2 2 2 2 2 2 2 2 2 2 2 1 1 2 2 2 2 3
3 4 4 7 9 9 11 11 11 13 13 16 17 17 11 8 5 4 4 4 4 4 3 3 3 3 2 3 2 2 2 2 2 2 2 2 2 2 2 2 2 2 3 3
4 3 3 5 4 5 9 9 11 8 9 9 13 12 8 8 6 5 6 4 4 4 3 2 2 2 2 2 2 2 2 1 1 1 2 2 2 2 2 2 2 2 3 3
4 4 3 4 3 7 6 3 6 9 10 10 9 8 7 7 6 5 5 3 3 3 3 3 2 2 1 1 1 1 1 1 1 2 2 2 1 2 2 1 2 2 2 2
5 5 4 3 5 8 5 3 3 5 7 6 9 9 7 5 5 5 3 2 3 3 2 2 1 1 1 1 1 1 1 1 1 2 2 2 2 2 2 2 2 2 2 2
2 4 4 4 5 6 3 1 1 2 6 5 5 6 5 2 3 5 3 3 2 2 0 0 0 1 0 1 1 2 1 1 2 2 2 2 2 2 2 2 2 2 2 3
4 5 8 8 7 6 3 3 4 2 6 3 3 4 3 4 5 4 4 3 2 1 0 0 1 0 1 1 2 2 1 2 2 1 1 1 1 2 2 2 2 2 2 2
8 7 7 6 6 8 3 5 5 6 3 3 4 4 3 4 4 4 4 3 2 1 1 0 0 1 1 1 2 2 2 2 1 1 1 1 2 2 2 2 2 1 1 1
8 8 6 8 8 3 6 6 4 2 4 4 4 5 4 4 4 4 4 3 2 2 1 1 1 1 1 1 2 3 2 2 1 1 1 1 2 1 1 1 2 1 1 1
5 5 5 6 8 6 5 5 4 4 5 5 4 4 4 4 5 4 3 3 3 2 1 1 1 2 2 2 2 3 2 1 1 1 2 1 1 1 1 1 1 1 2 2
5 5 5 7 7 6 6 5 5 4 4 4 4 3 3 3 4 4 4 3 3 2 1 1 2 3 3 2 2 2 2 2 2 2 2 1 1 1 1 1 1 2 2 3
6 7 7 8 5 5 5 3 3 4 4 4 4 4 3 3 4 4 4 3 3 2 2 2 2 3 3 2 2 2 2 3 2 2 2 1 1 1 1 1 2 2 2 3
Wind_Direction
194 223 229 231 238 272 285 285 283 284 286 263 259 265 260 250 241 242 235 223 219 214 187 168 169 162 156 157 159 182 175 183 182 201 228 244 242 252 266 261 265 249 244 256
221 236 247 257 259 267 272 278 285 293 301 280 274 273 264 238 231 230 224 217 222 224 199 184 179 171 168 162 161 186 198 190 196 209 221 239 239 243 239 253 280 269 260 254
237 251 263 253 267 272 262 261 279 293 305 268 275 280 247 229 212 213 213 214 216 213 210 196 182 178 169 178 194 208 216 203 206 208 187 250 274 285 256 261 257 266 265 263
253 240 261 259 256 263 265 289 288 289 292 278 240 284 254 214 212 213 209 205 208 215 205 187 178 182 181 193 199 202 198 194 205 195 187 210 227 233 246 239 247 270 258 263
248 227 241 251 263 267 275 318 283 269 269 279 245 248 272 205 217 217 196 186 192 202 193 180 178 188 180 169 178 197 181 191 218 215 206 227 245 245 260 258 255 274 272 249
250 265 267 279 291 255 273 281 267 246 256 264 232 221 272 225 211 189 179 174 176 182 178 164 169 167 153 137 153 179 173 191 215 234 222 234 239 232 238 257 259 276 275 259
239 216 194 225 272 226 244 289 309 260 227 244 212 223 242 238 157 170 180 181 169 163 167 166 166 168 160 161 176 184 187 215 225 259 259 267 254 225 228 250 247 266 269 276
252 233 184 188 205 227 236 227 212 248 263 284 246 231 235 153 121 94 142 173 161 160 167 161 159 163 167 176 180 184 198 217 217 236 259 275 271 248 251 255 259 258 260 262
278 255 150 173 205 223 227 224 257 278 284 279 249 232 235 156 148 146 169 172 174 175 162 159 157 161 173 184 185 185 186 205 220 229 244 270 268 259 267 276 274 271 275 275
298 281 212 164 197 227 255 258 197 217 260 269 270 242 232 206 216 216 217 232 216 172 157 156 160 175 186 181 182 174 178 201 222 223 229 267 264 259 266 273 273 277 282 279
264 262 228 191 204 201 195 215 221 236 244 251 280 271 298 183 182 204 232 219 200 179 162 164 169 178 175 168 176 187 191 200 219 224 228 246 256 263 272 280 278 275 278 276
217 257 256 227 198 212 212 214 199 216 247 236 264 275 351 47 112 152 248 275 218 180 164 161 167 173 175 184 197 197 197 206 216 219 229 241 239 249 265 277 287 287 285 282
183 212 277 252 223 203 235 229 227 239 265 246 247 265 308 5 22 13 335 286 235 184 165 160 173 188 199 206 209 202 202 212 212 205 219 234 239 244 266 279 288 295 291 289
208 219 222 239 264 214 246 240 224 216 231 249 243 263 281 299 304 299 288 263 262 217 197 207 215 215 206 209 206 204 211 213 211 209 216 228 240 247 263 282 284 285 287 281
208 243 247 266 276 268 256 250 233 228 231 242 261 270 278 287 285 288 281 272 274 255 216 213 228 235 224 219 220 214 213 212 216 216 219 234 245 250 265 280 281 279 284 279
207 249 268 270 257 259 263 255 241 238 240 249 264 272 280 293 293 293 278 265 265 261 232 233 235 235 232 221 220 224 216 208 200 209 223 234 239 244 253 268 276 277 280 278
204 228 256 263 277 289 264 239 227 228 226 231 249 261 293 299 292 281 279 263 260 268 252 235 232 234 234 219 212 230 226 206 197 226 239 236 237 249 247 255 263 265 270 277
195 206 234 272 291 250 244 181 197 224 242 237 253 277 291 287 289 284 279 267 282 285 259 249 241 240 237 202 197 214 191 181 203 227 244 243 234 254 256 255 268 272 276 279
206 200 225 240 258 269 269 243 194 217 259 248 252 270 287 303 311 292 281 290 277 280 264 246 233 221 198 192 177 154 175 171 196 232 244 243 225 245 251 251 263 265 265 270
203 197 220 232 246 253 257 125 91 134 273 277 266 269 278 308 292 282 325 325 304 320 345 331 10 22 183 215 167 160 192 193 222 237 247 248 228 240 252 245 251 261 255 253
178 200 218 231 245 261 258 149 118 177 262 306 290 279 267 239 245 278 312 315 303 309 328 101 114 224 222 200 165 181 201 227 239 240 249 254 243 247 253 249 245 251 250 249
183 188 201 205 228 251 184 144 189 232 292 303 303 299 285 277 286 294 303 299 308 312 342 79 233 277 265 198 177 203 226 237 223 208 233 254 258 261 267 247 256 242 222 224
199 198 195 203 220 232 177 198 222 248 284 290 298 303 294 286 284 282 282 282 289 280 261 256 251 281 279 220 193 215 235 216 191 200 233 258 267 266 272 244 248 235 209 218
218 203 218 245 252 256 241 240 249 256 263 274 277 281 286 282 285 289 287 282 276 268 257 254 240 258 270 253 222 220 216 191 188 214 234 244 248 270 275 245 226 214 212 222
215 187 221 246 262 278 261 251 258 268 277 282 280 273 271 269 280 286 289 282 270 273 261 235 226 243 257 258 239 213 200 184 190 219 239 247 244 249 262 259 243 237 231 226
206 203 212 239 229 220 249 247 251 259 266 268 278 283 281 260 270 285 284 277 267 267 274 264 253 249 260 259 250 220 202 190 188 213 231 238 232 252 268 302 327 307 268 267
Height
1481 1484 1484 1482 1481 1480 1479 1479 1479 1474 1472 1475 1474 1471 1469 1467 1468 1468 1468 1469 1470 1471 1472 1473 1473 1474 1474 1475 1475 1476 1476 1477 1477 1477 1477 1477 1477 1478 1478 1478 1478 1478 1478 1478
1481 1483 1480 1479 1479 1479 1479 1480 1478 1474 1472 1473 1472 1468 1464 1462 1462 1463 1464 1465 1467 1468 1469 1469 1470 1470 1471 1472 1472 1473 1473 1473 1474 1474 1474 1474 1474 1474 1475 1475 1475 1475 1475 1474
1480 1480 1478 1478 1479 1479 1478 1479 1478 1478 1474 1472 1473 1468 1459 1456 1457 1459 1461 1462 1463 1464 1465 1466 1466 1467 1467 1468 1469 1469 1470 1470 1471 1471 1471 1471 1471 1471 1471 1471 1471 1471 1471 1470
1478 1477 1478 1478 1478 1479 1479 1476 1477 1477 1481 1479 1474 1477 1457 1454 1455 1455 1457 1458 1460 1461 1462 1463 1463 1464 1464 1465 1466 1466 1467 1467 1468 1468 1467 1467 1467 1467 1467 1467 1467 1467 1467 1467
1477 1476 1477 1478 1478 1478 1477 1476 1477 1477 1479 1479 1473 1477 1461 1451 1454 1453 1454 1455 1457 1458 1459 1459 1460 1460 1461 1462 1463 1463 1464 1464 1464 1465 1464 1464 1464 1464 1464 1464 1464 1463 1463 1463
1477 1477 1477 1477 1477 1477 1477 1477 1475 1476 1480 1483 1469 1472 1462 1452 1449 1449 1450 1452 1454 1455 1456 1457 1457 1458 1458 1459 1459 1460 1460 1461 1461 1461 1461 1461 1461 1461 1461 1460 1460 1460 1459 1459
1476 1475 1476 1477 1478 1477 1478 1481 1484 1483 1483 1475 1460 1462 1458 1445 1444 1445 1447 1449 1451 1452 1453 1454 1454 1454 1455 1455 1456 1456 1457 1457 1458 1458 1458 1458 1458 1458 1457 1457 1457 1457 1456 1456
1477 1476 1474 1475 1476 1478 1477 1478 1486 1486 1478 1468 1460 1461 1451 1443 1443 1443 1445 1447 1449 1450 1450 1451 1451 1451 1452 1452 1453 1453 1454 1454 1454 1454 1454 1455 1455 1454 1454 1454 1454 1454 1453 1453
1477 1474 1472 1472 1473 1476 1477 1478 1476 1481 1478 1477 1462 1451 1444 1442 1443 1443 1444 1445 1446 1447 1448 1448 1449 1449 1449 1450 1450 1450 1451 1451 1451 1451 1451 1451 1451 1451 1451 1451 1451 1451 1450 1450
1476 1478 1472 1473 1474 1475 1475 1475 1480 1482 1481 1475 1457 1449 1447 1443 1443 1442 1442 1442 1443 1444 1445 1446 1446 1447 1447 1448 1448 1448 1448 1448 1448 1448 1448 1448 1448 1448 1448 1448 1448 1447 1447 1447
1477 1480 1476 1474 1474 1473 1476 1476 1475 1476 1474 1475 1467 1453 1437 1437 1438 1440 1440 1440 1441 1442 1443 1444 1444 1445 1445 1445 1445 1445 1445 1445 1445 1445 1445 1445 1445 1445 1445 1445 1444 1444 1444 1443
1476 1479 1477 1471 1468 1468 1469 1471 1474 1480 1475 1470 1469 1457 1437 1437 1436 1437 1439 1439 1439 1440 1441 1441 1442 1442 1442 1442 1442 1442 1442 1442 1442 1442 1442 1442 1442 1442 1442 1442 1442 1441 1441 1440
1477 1480 1480 1471 1472 1472 1471 1469 1470 1473 1474 1471 1469 1455 1438 1437 1437 1437 1438 1438 1438 1439 1439 1439 1440 1440 1439 1439 1439 1439 1439 1439 1439 1440 1439 1439 1439 1439 1439 1439 1438 1438 1438 1437
1475 1478 1479 1472 1465 1469 1470 1468 1469 1473 1474 1468 1459 1448 1441 1439 1438 1437 1437 1437 1437 1437 1437 1437 1437 1437 1437 1437 1436 1436 1436 1436 1436 1436 1436 1436 1436 1436 1436 1436 1435 1435 1435 1434
1474 1475 1472 1468 1464 1463 1463 1463 1464 1466 1464 1463 1451 1446 1439 1438 1438 1436 1436 1435 1435 1434 1434 1434 1434 1434 1434 1433 1433 1433 1433 1432 1432 1432 1432 1433 1433 1433 1433 1433 1433 1432 1432 1431
1472 1473 1470 1467 1461 1459 1458 1455 1456 1457 1456 1453 1448 1443 1436 1436 1435 1434 1433 1432 1431 1431 1431 1431 1431 1431 1430 1430 1430 1429 1429 1429 1429 1429 1429 1430 1430 1430 1430 1429 1429 1429 1428 1428
1471 1472 1471 1465 1459 1459 1456 1448 1449 1449 1445 1446 1445 1439 1435 1434 1433 1432 1430 1429 1429 1428 1427 1427 1427 1427 1427 1426 1426 1425 1425 1425 1425 1425 1426 1426 1426 1426 1426 1426 1426 1426 1425 1425
1468 1470 1471 1466 1463 1461 1442 1437 1438 1441 1439 1438 1436 1434 1433 1432 1430 1428 1427 1426 1426 1425 1424 1424 1424 1423 1423 1423 1423 1422 1422 1422 1422 1422 1422 1423 1423 1423 1423 1423 1423 1423 1422 1422
1463 1467 1467 1465 1460 1448 1439 1436 1437 1439 1437 1432 1432 1431 1430 1429 1427 1425 1424 1424 1423 1423 1422 1421 1421 1421 1420 1420 1420 1420 1419 1419 1419 1419 1419 1419 1419 1419 1419 1419 1419 1419 1419 1418
1462 1464 1467 1462 1459 1451 1437 1436 1434 1438 1437 1429 1428 1428 1427 1427 1430 1425 1423 1422 1421 1420 1420 1419 1419 1418 1418 1418 1418 1417 1417 1417 1417 1417 1417 1417 1416 1416 1416 1415 1416 1416 1416 1415
1463 1463 1463 1459 1455 1444 1436 1434 1435 1442 1435 1428 1426 1425 1425 1425 1426 1423 1421 1420 1419 1418 1417 1417 1416 1416 1416 1416 1415 1415 1414 1414 1415 1414 1414 1414 1413 1413 1413 1413 1413 1413 1413 1413
1455 1457 1457 1455 1453 1444 1433 1434 1435 1432 1427 1426 1425 1424 1423 1422 1421 1420 1419 1417 1416 1415 1415 1414 1414 1413 1413 1413 1413 1412 1412 1412 1412 1412 1411 1411 1410 1410 1410 1410 1410 1410 1410 1410
1443 1442 1441 1442 1437 1429 1427 1427 1426 1426 1425 1424 1423 1422 1421 1419 1418 1417 1416 1415 1414 1413 1413 1412 1412 1411 1411 1411 1410 1410 1410 1410 1410 1409 1409 1408 1408 1408 1407 1407 1407 1407 1407 1407
1434 1433 1434 1433 1426 1424 1424 1423 1423 1423 1423 1422 1421 1420 1419 1417 1415 1414 1413 1412 1412 1411 1410 1410 1409 1409 1409 1409 1408 1408 1408 1408 1407 1407 1406 1406 1406 1405 1405 1405 1404 1404 1404 1404
1427 1430 1430 1427 1423 1421 1419 1420 1420 1419 1419 1418 1417 1416 1415 1414 1413 1412 1411 1410 1409 1408 1408 1408 1407 1407 1406 1406 1406 1406 1405 1405 1405 1404 1404 1404 1403 1403 1402 1402 1402 1402 1402 1402
1421 1423 1425 1421 1417 1418 1416 1416 1416 1415 1415 1414 1414 1413 1412 1411 1410 1409 1408 1407 1406 1405 1405 1405 1404 1404 1404 1403 1403 1403 1402 1402 1402 1401 1401 1401 1401 1400 1400 1399 1399 1399 1399 1399